Wind_Speed
6 3 1 9 8 7 8 7 6 8 3 2 8 8 7 11 13 14 17 17 18 18 17 17 16 13 7 3 12 11 13 12 13 13 9 10 8 7 8 8 9 9 9 10
3 1 6 5 4 5 5 5 2 6 4 2 8 8 7 11 10 14 16 18 19 19 21 22 20 18 13 9 8 9 8 10 11 9 7 7 6 6 6 6 8 7 7 8
6 5 3 3 2 5 5 5 5 4 5 6 8 7 8 9 13 15 16 17 19 21 22 24 24 19 18 12 10 8 6 8 9 11 10 11 13 11 9 10 10 7 6 6
3 3 2 1 4 4 4 6 3 2 3 2 8 0 8 9 8 13 15 17 19 20 22 24 25 26 19 15 11 11 10 10 10 8 6 8 7 2 7 3 4 6 8 9
3 1 1 4 4 4 3 3 2 3 5 6 7 2 5 10 8 8 13 16 17 19 21 23 24 24 26 24 17 7 6 8 10 10 12 9 9 9 7 7 10 12 9 10
4 1 3 4 3 3 1 4 5 3 3 3 10 8 7 6 12 7 14 15 16 17 19 21 21 23 26 24 25 24 22 14 5 2 4 7 9 9 10 9 7 4 4 6
5 5 4 2 4 3 3 4 2 2 2 3 6 3 5 8 10 14 15 15 15 16 17 19 21 22 22 24 24 23 22 23 22 21 16 10 7 3 1 2 5 7 8 8
3 3 4 2 2 3 6 2 2 3 2 1 2 3 5 9 17 17 15 14 14 15 16 17 18 19 20 21 21 21 21 21 19 19 19 19 17 14 12 10 7 5 5 3
4 4 4 5 3 3 2 2 3 5 6 2 5 5 5 9 9 14 14 13 13 13 13 15 15 16 17 17 17 16 17 17 18 18 15 14 14 15 13 11 10 10 10 9
3 3 1 3 1 3 3 2 1 2 3 4 4 6 3 9 9 8 12 13 11 11 12 12 13 14 14 15 15 15 15 15 14 13 14 13 11 10 11 11 11 11 10 11
5 3 3 3 1 4 1 2 4 1 2 2 3 2 6 8 10 9 15 13 11 9 9 9 10 11 13 13 14 16 16 16 15 13 12 11 11 10 8 9 10 11 10 10
5 3 4 4 3 1 1 4 2 1 5 3 2 2 6 4 17 16 18 13 8 7 7 7 8 9 11 12 13 14 16 17 17 15 14 13 12 12 11 11 10 10 11 10
5 3 4 4 3 1 1 3 3 4 1 4 1 0 4 3 14 19 18 12 8 7 6 7 8 9 9 10 11 13 15 18 18 16 15 15 17 15 14 14 14 14 14 12
4 4 4 3 1 1 2 5 3 2 1 4 3 5 4 2 7 12 14 10 9 7 5 5 5 7 8 9 13 15 16 18 19 18 15 14 18 19 18 17 17 16 15 16
3 4 4 6 7 3 6 7 6 5 6 3 3 5 3 6 5 10 11 8 6 6 4 4 4 6 8 12 15 17 18 19 19 18 16 15 18 19 21 21 20 19 18 17
2 2 6 4 4 2 6 7 6 5 5 6 6 4 8 10 6 8 6 7 4 3 3 3 5 8 11 14 16 17 19 19 18 18 16 17 18 18 19 19 21 22 21 18
3 3 1 3 1 4 7 2 8 3 3 3 2 4 3 1 3 3 6 7 9 6 1 3 5 10 14 16 18 20 20 18 17 16 15 20 22 21 20 19 19 19 19 19
2 2 1 3 4 3 3 4 6 1 4 3 2 4 6 7 7 8 8 10 7 4 4 6 8 11 15 16 18 20 19 16 17 17 20 21 20 19 18 15 15 15 16 15
2 3 2 1 3 2 5 3 2 2 3 6 3 6 1 3 5 10 12 19 11 5 6 8 11 15 16 17 20 20 16 15 16 20 22 19 19 21 18 16 18 18 14 10
2 3 1 1 2 4 5 6 6 4 4 12 4 4 6 8 4 2 13 7 4 8 8 11 13 14 16 17 19 16 13 13 18 19 17 18 19 16 15 15 14 11 9 7
3 3 4 3 3 3 7 8 4 1 0 7 2 9 11 6 9 15 21 13 10 11 11 13 14 15 16 17 17 12 13 14 17 13 15 17 14 15 13 12 8 7 7 5
4 4 4 4 4 6 13 5 3 4 2 7 12 14 13 13 14 14 15 10 8 11 13 14 17 15 14 14 14 11 11 15 15 9 15 11 16 11 12 8 7 6 6 8
2 3 2 3 2 8 9 10 8 10 7 11 13 10 11 12 13 13 9 5 7 11 15 15 16 14 9 13 15 13 12 15 14 7 13 7 15 7 11 6 8 6 7 9
6 9 3 4 2 4 7 10 12 12 8 7 10 13 13 15 15 13 10 10 10 11 15 17 16 12 8 13 16 15 15 16 12 5 11 6 8 6 7 10 7 7 5 6
2 4 2 6 13 19 19 19 11 9 8 10 12 14 16 16 15 14 13 13 14 16 15 16 15 11 13 15 15 15 16 15 10 5 4 7 2 5 5 3 7 10 10 7
7 4 4 5 12 6 6 5 5 7 12 14 15 16 16 16 17 17 15 17 16 15 15 13 13 13 15 16 16 16 16 13 9 4 2 5 3 1 3 1 4 7 8 10
Wind_Direction
174 273 334 40 30 349 337 8 34 93 30 38 107 103 92 73 62 62 56 46 39 35 26 24 28 30 53 181 175 201 207 209 202 214 207 217 239 254 259 251 248 253 252 277
228 172 58 58 21 331 332 303 106 81 152 232 139 123 102 94 77 66 61 52 46 38 34 30 33 49 59 95 166 178 200 202 206 219 218 226 243 269 283 284 273 268 268 268
309 74 42 13 307 292 225 329 17 65 167 260 156 154 143 118 103 81 65 60 51 48 42 38 37 46 58 78 98 143 164 191 203 206 211 210 218 220 231 245 264 265 267 279
37 66 349 212 253 21 332 5 351 92 193 259 169 192 163 142 108 79 72 62 58 51 50 47 45 41 51 61 88 114 139 154 178 201 200 247 236 313 332 297 290 287 282 271
60 132 219 275 37 351 98 330 344 314 286 310 197 257 117 140 127 100 82 73 64 58 55 53 51 52 51 55 59 86 148 155 166 178 198 193 202 216 225 242 253 252 254 274
84 116 310 33 83 26 60 259 220 255 235 252 223 176 172 189 142 121 99 81 74 67 61 58 56 59 58 59 58 59 58 67 80 153 195 214 223 223 227 237 250 252 263 286
166 167 110 256 225 170 225 272 236 249 198 247 12 134 116 102 111 116 109 94 81 72 65 61 58 54 59 59 57 60 63 58 55 61 68 74 81 91 33 268 254 248 241 235
289 209 166 142 359 7 222 349 300 297 35 138 275 188 143 96 98 104 106 102 88 76 66 63 59 57 54 55 58 55 55 59 57 56 57 53 50 52 53 50 44 30 17 318
346 109 97 45 348 7 80 199 347 310 279 247 145 88 84 121 126 134 119 104 90 81 71 63 60 58 52 50 49 53 52 53 54 47 43 50 52 41 32 34 33 29 21 12
31 273 253 109 260 209 246 343 301 233 269 260 198 122 118 167 157 141 134 116 102 88 77 68 59 52 49 48 41 39 40 42 42 45 33 28 32 35 23 11 11 9 6 3
348 243 155 161 183 20 235 220 234 235 263 256 324 86 352 176 161 155 132 120 111 97 85 75 67 56 46 36 32 24 21 19 22 23 19 5 4 4 360 356 356 358 353 351
71 321 299 75 79 335 311 341 328 235 330 324 157 217 330 111 142 151 127 124 115 110 97 81 69 54 42 32 22 16 4 3 3 3 357 347 337 337 334 334 337 336 336 338
355 228 291 134 146 225 70 40 356 343 247 244 307 162 7 47 127 130 131 140 136 121 100 86 65 52 36 19 3 360 352 349 348 351 346 341 329 329 327 322 318 317 316 318
314 295 285 302 20 75 203 181 139 5 298 330 313 137 142 92 122 127 136 138 138 119 99 80 56 35 17 358 348 350 346 345 344 343 341 337 324 326 323 319 316 314 308 306
359 275 312 324 314 264 266 286 293 247 268 246 359 4 50 158 157 153 149 157 145 137 102 57 26 7 358 343 342 342 337 337 338 336 334 329 321 322 322 322 321 317 311 309
45 294 352 278 219 8 277 271 269 267 281 297 296 299 41 46 62 105 137 177 158 159 130 23 352 343 341 339 337 333 331 333 335 329 335 318 311 309 313 318 321 321 321 318
319 324 334 273 147 293 270 268 207 110 36 23 294 75 70 101 301 207 247 192 214 211 96 327 324 320 330 332 329 326 328 335 326 328 308 306 312 317 321 319 315 313 318 311
297 268 349 276 346 249 104 32 31 70 116 174 143 94 42 22 4 348 325 302 302 172 206 262 295 320 329 329 322 320 326 327 322 314 310 317 322 321 318 324 318 308 315 327
268 310 269 209 288 310 153 190 156 189 261 171 194 136 225 314 307 288 305 261 212 238 251 279 309 320 325 319 316 320 330 324 315 312 323 329 321 319 322 315 308 308 302 321
196 269 307 147 246 266 100 79 83 66 284 120 83 41 357 351 343 264 7 303 254 254 264 289 306 319 317 313 311 323 324 321 314 330 344 324 333 336 332 321 327 330 326 319
185 202 189 238 269 291 126 129 168 267 340 110 28 337 326 317 293 306 303 269 223 250 281 294 305 316 311 308 310 320 321 315 322 340 323 339 341 342 335 337 337 360 354 346
186 181 184 193 219 250 132 139 207 118 31 323 317 319 311 303 303 303 297 217 229 274 285 294 301 308 306 303 307 313 312 309 322 344 327 348 339 360 356 2 19 19 42 55
245 205 205 177 153 122 183 246 274 298 286 295 304 291 300 304 302 305 281 269 271 275 286 291 295 299 301 291 300 309 301 308 318 337 324 343 333 15 355 19 30 45 55 52
218 197 185 27 337 306 307 288 286 303 300 263 263 284 292 294 292 285 293 279 272 269 273 282 285 290 277 277 290 303 296 307 312 319 316 336 331 16 356 356 29 3 45 67
263 66 220 255 266 276 270 270 276 279 277 268 270 281 281 282 274 277 279 266 263 265 270 276 283 275 276 282 289 296 294 305 309 307 328 314 309 343 336 331 350 14 26 54
219 221 212 234 253 285 300 306 279 277 279 278 277 277 275 273 274 259 265 266 269 275 282 280 280 276 281 284 288 295 289 299 297 286 228 281 273 283 289 335 332 351 13 29
Height
1518 1522 1523 1519 1517 1517 1515 1515 1518 1525 1525 1526 1534 1541 1544 1546 1546 1546 1546 1546 1546 1544 1543 1539 1536 1533 1531 1532 1536 1540 1540 1543 1546 1547 1548 1550 1550 1551 1551 1552 1553 1553 1554 1554
1520 1522 1519 1518 1519 1519 1518 1519 1522 1525 1526 1530 1535 1543 1544 1547 1549 1549 1550 1549 1548 1547 1544 1541 1537 1533 1531 1532 1536 1539 1542 1543 1545 1547 1549 1550 1551 1551 1551 1551 1552 1552 1552 1553
1521 1523 1520 1520 1520 1522 1520 1523 1525 1525 1528 1528 1532 1543 1546 1548 1549 1551 1552 1552 1552 1550 1548 1545 1541 1537 1534 1533 1535 1538 1541 1543 1545 1547 1548 1549 1549 1551 1551 1551 1551 1551 1551 1551
1520 1522 1521 1521 1521 1521 1526 1524 1523 1524 1532 1540 1527 1549 1544 1546 1550 1552 1554 1554 1554 1553 1551 1549 1546 1543 1539 1538 1536 1536 1537 1540 1542 1545 1546 1547 1549 1550 1551 1550 1550 1550 1550 1550
1527 1523 1522 1523 1527 1523 1529 1524 1524 1525 1531 1533 1532 1544 1543 1541 1550 1554 1556 1556 1557 1556 1555 1553 1551 1549 1547 1544 1542 1541 1540 1539 1540 1541 1542 1544 1546 1547 1548 1548 1549 1549 1549 1549
1522 1524 1524 1524 1525 1525 1526 1527 1527 1527 1533 1547 1525 1532 1546 1541 1543 1552 1556 1557 1558 1558 1557 1556 1555 1553 1551 1550 1548 1546 1545 1544 1544 1543 1543 1544 1544 1545 1546 1546 1547 1547 1548 1548
1522 1523 1524 1525 1526 1526 1527 1530 1544 1550 1550 1541 1515 1527 1544 1541 1542 1549 1554 1558 1559 1559 1559 1558 1557 1556 1555 1553 1552 1550 1549 1549 1548 1547 1546 1545 1544 1544 1544 1545 1545 1544 1544 1544
1527 1535 1525 1525 1525 1529 1526 1529 1542 1546 1541 1535 1520 1533 1548 1544 1548 1551 1556 1559 1560 1560 1561 1560 1560 1559 1557 1556 1555 1554 1552 1551 1551 1550 1549 1549 1548 1546 1545 1545 1544 1544 1543 1542
1536 1531 1527 1526 1527 1529 1528 1533 1528 1535 1525 1533 1531 1546 1545 1547 1552 1553 1556 1559 1561 1562 1562 1562 1562 1561 1560 1559 1557 1556 1554 1554 1552 1552 1551 1550 1549 1549 1547 1546 1545 1544 1543 1542
1535 1539 1525 1529 1528 1527 1529 1529 1537 1536 1546 1541 1522 1537 1546 1548 1551 1554 1556 1559 1562 1563 1563 1563 1563 1562 1562 1561 1560 1558 1556 1555 1554 1553 1552 1551 1550 1549 1548 1547 1545 1544 1543 1541
1537 1534 1531 1528 1530 1533 1531 1531 1531 1532 1533 1542 1545 1552 1540 1544 1546 1552 1556 1560 1562 1563 1564 1564 1564 1564 1563 1563 1561 1560 1558 1556 1555 1554 1552 1551 1549 1548 1547 1546 1544 1543 1542 1540
1542 1544 1541 1533 1534 1533 1533 1535 1534 1545 1543 1537 1539 1552 1542 1539 1543 1549 1554 1559 1562 1564 1564 1565 1565 1564 1564 1563 1562 1560 1559 1557 1555 1554 1553 1551 1548 1547 1545 1544 1543 1541 1540 1538
1549 1540 1544 1541 1540 1535 1535 1540 1537 1538 1539 1545 1549 1554 1545 1543 1544 1548 1553 1558 1561 1563 1564 1565 1565 1564 1564 1563 1561 1560 1558 1556 1554 1553 1551 1549 1546 1545 1543 1541 1540 1539 1537 1535
1551 1543 1541 1546 1543 1544 1540 1541 1542 1545 1550 1543 1540 1548 1549 1547 1547 1550 1554 1557 1560 1562 1564 1564 1565 1564 1563 1562 1560 1559 1557 1555 1553 1551 1549 1547 1544 1542 1540 1537 1536 1535 1533 1531
1549 1547 1539 1540 1539 1540 1543 1544 1543 1546 1545 1549 1541 1546 1546 1547 1549 1551 1554 1557 1559 1562 1563 1564 1564 1563 1562 1560 1559 1557 1555 1553 1551 1549 1547 1545 1542 1539 1536 1534 1532 1530 1529 1527
1550 1549 1548 1545 1537 1542 1546 1544 1543 1543 1545 1545 1546 1548 1549 1550 1551 1553 1556 1558 1560 1561 1562 1564 1564 1563 1560 1558 1556 1554 1552 1550 1548 1546 1545 1542 1539 1535 1532 1530 1527 1526 1524 1523
1555 1552 1549 1545 1542 1542 1547 1542 1539 1543 1547 1548 1550 1554 1553 1554 1554 1555 1557 1557 1558 1559 1561 1563 1562 1561 1559 1557 1554 1552 1549 1547 1545 1543 1541 1537 1534 1531 1528 1526 1524 1522 1521 1519
1555 1556 1555 1556 1546 1549 1547 1544 1541 1543 1545 1548 1550 1552 1553 1554 1555 1555 1556 1557 1558 1558 1560 1561 1560 1558 1556 1554 1551 1549 1546 1544 1542 1539 1536 1533 1530 1527 1524 1523 1520 1518 1517 1516
1556 1556 1557 1558 1552 1538 1547 1546 1545 1546 1545 1546 1548 1551 1553 1554 1554 1555 1554 1553 1553 1555 1557 1558 1557 1555 1552 1550 1547 1545 1544 1541 1538 1535 1532 1529 1526 1523 1521 1519 1517 1515 1514 1513
1557 1557 1559 1554 1558 1548 1547 1547 1548 1549 1556 1546 1550 1552 1553 1554 1558 1554 1553 1553 1552 1554 1555 1555 1554 1551 1549 1547 1544 1543 1541 1538 1535 1533 1530 1527 1524 1522 1519 1517 1515 1513 1511 1510
1555 1556 1564 1564 1562 1544 1545 1548 1549 1556 1561 1552 1553 1554 1554 1554 1554 1552 1551 1550 1550 1551 1552 1551 1550 1547 1546 1543 1541 1540 1538 1536 1533 1531 1529 1526 1523 1521 1518 1516 1513 1511 1510 1509
1547 1551 1554 1553 1554 1555 1544 1549 1551 1551 1550 1552 1552 1553 1552 1552 1550 1549 1548 1546 1547 1548 1548 1548 1546 1544 1542 1540 1539 1537 1536 1533 1531 1529 1527 1525 1522 1520 1518 1515 1513 1511 1509 1508
1554 1544 1551 1547 1544 1541 1543 1543 1545 1545 1545 1547 1549 1549 1549 1549 1547 1547 1545 1545 1545 1545 1545 1544 1542 1541 1539 1538 1536 1534 1532 1530 1528 1527 1525 1524 1521 1519 1517 1516 1514 1512 1511 1510
1539 1539 1546 1544 1538 1539 1541 1542 1542 1543 1542 1543 1545 1546 1546 1545 1544 1543 1542 1542 1542 1542 1541 1540 1539 1538 1538 1536 1533 1531 1529 1527 1525 1524 1523 1522 1520 1519 1518 1516 1515 1513 1511 1510
1539 1539 1540 1541 1539 1538 1538 1537 1538 1539 1540 1541 1541 1541 1541 1540 1539 1539 1539 1539 1538 1537 1536 1535 1534 1534 1533 1532 1530 1528 1525 1523 1522 1521 1521 1520 1519 1518 1517 1516 1515 1514 1511 1510
1534 1533 1538 1538 1535 1536 1535 1535 1536 1537 1537 1537 1536 1536 1535 1535 1534 1534 1535 1534 1534 1533 1532 1530 1530 1530 1529 1527 1526 1524 1521 1520 1519 1518 1518 1517 1516 1516 1515 1514 1514 1513 1512 1511